Location: Unspecified
(0.0000°N, 0.0000°E)
Time: 18:45:50
(UTC+00:00)

Tiangong 1 - Pass Details

Date: 16 November 2017
Orbit: 285 x 308 km, 42.8° (Epoch: 20 November)

Event Time Altitude Azimuth Distance (km) Brightness Sun altitude
Rises 18:42:20 0° 223° (SW) 1,993 5.9 -13.6°
Reaches altitude 10° 18:44:18 10° 222° (SW) 1,163 4.5 -14.0°
Maximum altitude 18:46:54 80° 136° (SE) 303 0.4 -14.6°
Enters shadow 18:47:32 45° 55° (NE) 409 0.7 -14.8°
